Погода в Улытау

Казахстан     48°39′17″N   67°00′33″E
темп.,
°C
ветер,
м/с
пор.,
м/с
влажн.,
%
обл.,
%
осадки,
мм/ч
давл.,
гПа
погр.,
м
5 декабря, вс
вс500:00−5вюв4783100 0.0 1029126
03:00−5вюв4779100 0.0 1027122
06:00−4юв3574100 0.2 102682
09:00−3юв3373100 0.1 102470
12:00−2юв3569100 0.1 1024111
15:00−1ююв2481100 0.5 1022115
18:000юв3596100 3.2 1021129
21:000ю2398100 0.4 102299
6 декабря, пн
пн600:000ю2299100 0.6 102251
03:00−1ю2398100 0.0 1021129
06:00−1ююз2598100 0.1 1022312
09:00−2ю2496100 0.1 1022221
12:00−1ююз3591100 0.1 1022300
15:00−1зюз3693100 0.1 1022381
18:00−1зюз4897100 0.2 1023506
21:00−1з4798100 0.0 1024464
7 декабря, вт
вт700:00−4зюз239560 0.1 102641
03:00−6зюз349781 0.0 102748
06:00−6зюз2391100 0.0 102846
09:00−5зюз1187100 0.0 102920
12:00−3юз1172100 0.0 1030113
15:00−2з1170100 0.0 1030213
18:00−4в1186100 0.0 103110
21:00−4юв2387100 0.0 103151
8 декабря, ср
ср800:00−5юв119494 0.0 103313
03:00−8юв119761 0.0 103410
06:00−8в019828 0.0 103510
09:00−9всв119875 0.0 103710
12:00−6всв239112 0.0 1038121
15:00−6в22762 0.0 1038159
18:00−10в33885 0.0 104131
21:00−11вюв46845 0.0 104285
9 декабря, чт
чт900:00−12юв57775 0.0 1043100
03:00−12юв4771100 0.0 104394
06:00−11юв466998 0.0 104485
09:00−11юв46667 0.0 104480
12:00−8юв57605 0.0 1043136
15:00−6юв576135 0.0 1042151
18:00−9юв576850 0.0 104281
21:00−9юв58665 0.0 104288